Time,TemperatureF,DewpointF,PressureIn,WindDirection,WindDirectionDegrees,WindSpeedMPH,WindSpeedGustMPH,Humidity,HourlyPrecipIn,Conditions,Clouds,dailyrainin,SoftwareType,DateUTC
2013-07-13 00:22:00,64.0,56.0,-100.00,East,80,0.0,1.0,77,-99.99,,,-99.99,,2013-07-13 05:22:00,
2013-07-13 00:32:00,63.0,57.0,-100.00,ENE,75,0.0,1.0,79,-99.99,,,-99.99,,2013-07-13 05:32:00,
2013-07-13 00:42:00,63.0,57.0,-100.00,East,90,0.0,1.0,80,-99.99,,,-99.99,,2013-07-13 05:42:00,
2013-07-13 00:52:00,63.0,57.0,-100.00,East,90,0.0,1.0,80,-99.99,,,-99.99,,2013-07-13 05:52:00,
2013-07-13 01:22:00,62.0,57.0,-100.00,ENE,75,0.0,1.0,81,-99.99,,,-99.99,,2013-07-13 06:22:00,
2013-07-13 01:43:00,62.0,57.0,-100.00,East,80,0.0,0.0,83,-99.99,,,-99.99,,2013-07-13 06:43:00,
2013-07-13 01:52:00,62.0,57.0,-100.00,East,80,0.0,0.0,83,-99.99,,,-99.99,,2013-07-13 06:52:00,
2013-07-13 02:22:00,62.0,57.0,-100.00,ENE,75,0.0,0.0,84,-99.99,,,-99.99,,2013-07-13 07:22:00,
2013-07-13 02:44:00,61.0,57.0,-100.00,NNE,30,0.0,0.0,85,-99.99,,,-99.99,,2013-07-13 07:44:00,
2013-07-13 02:53:00,61.0,57.0,-100.00,NNE,30,0.0,0.0,85,-99.99,,,-99.99,,2013-07-13 07:53:00,
2013-07-13 03:22:00,61.0,57.0,-100.00,ENE,60,0.0,0.0,86,-99.99,,,-99.99,,2013-07-13 08:22:00,
2013-07-13 03:52:00,60.0,57.0,-100.00,NE,45,0.0,0.0,88,-99.99,,,-99.99,,2013-07-13 08:52:00,
2013-07-13 04:22:00,60.0,57.0,-100.00,East,80,0.0,0.0,89,-99.99,,,-99.99,,2013-07-13 09:22:00,
2013-07-13 04:53:00,60.0,56.0,-100.00,East,95,0.0,0.0,89,-99.99,,,-99.99,,2013-07-13 09:53:00,
2013-07-13 05:11:00,59.0,56.0,-100.00,NE,55,0.0,0.0,89,-99.99,,,-99.99,,2013-07-13 10:11:00,
2013-07-13 05:22:00,59.0,56.0,-100.00,NE,55,0.0,0.0,89,-99.99,,,-99.99,,2013-07-13 10:22:00,
2013-07-13 05:43:00,59.0,56.0,-100.00,ENE,60,0.0,1.0,90,-99.99,,,-99.99,,2013-07-13 10:43:00,
2013-07-13 05:52:00,59.0,56.0,-100.00,ENE,60,0.0,1.0,90,-99.99,,,-99.99,,2013-07-13 10:52:00,
2013-07-13 06:11:00,59.0,56.0,-100.00,ENE,75,0.0,0.0,91,-99.99,,,-99.99,,2013-07-13 11:11:00,
2013-07-13 06:22:00,59.0,56.0,-100.00,ENE,75,0.0,0.0,91,-99.99,,,-99.99,,2013-07-13 11:22:00,
2013-07-13 06:42:00,59.0,57.0,-100.00,East,80,0.0,0.0,91,-99.99,,,-99.99,,2013-07-13 11:42:00,
2013-07-13 06:52:00,59.0,57.0,-100.00,East,80,0.0,0.0,91,-99.99,,,-99.99,,2013-07-13 11:52:00,
2013-07-13 07:22:00,61.0,58.0,-100.00,East,95,0.0,2.0,91,-99.99,,,-99.99,,2013-07-13 12:22:00,
2013-07-13 07:43:00,62.0,60.0,-100.00,ESE,120,0.0,1.0,91,-99.99,,,-99.99,,2013-07-13 12:43:00,
2013-07-13 07:52:00,62.0,60.0,-100.00,ESE,120,0.0,1.0,91,-99.99,,,-99.99,,2013-07-13 12:52:00,
2013-07-13 08:22:00,65.0,62.0,-100.00,SE,125,0.0,1.0,90,-99.99,,,-99.99,,2013-07-13 13:22:00,
2013-07-13 08:43:00,67.0,63.0,-100.00,ESE,120,0.0,3.0,87,-99.99,,,-99.99,,2013-07-13 13:43:00,
2013-07-13 08:53:00,67.0,63.0,-100.00,ESE,120,0.0,3.0,87,-99.99,,,-99.99,,2013-07-13 13:53:00,
2013-07-13 09:22:00,71.0,64.0,-100.00,NE,55,0.0,4.0,80,-99.99,,,-99.99,,2013-07-13 14:22:00,
2013-07-13 09:53:00,72.0,61.0,-100.00,SW,225,1.0,4.0,68,-99.99,,,-99.99,,2013-07-13 14:53:00,
2013-07-13 10:22:00,74.0,61.0,-100.00,SE,140,0.0,4.0,64,-99.99,,,-99.99,,2013-07-13 15:22:00,
2013-07-13 10:53:00,75.0,59.0,-100.00,SE,125,1.0,4.0,57,-99.99,,,-99.99,,2013-07-13 15:53:00,
2013-07-13 11:11:00,76.0,57.0,-100.00,SSE,160,1.0,3.0,51,-99.99,,,-99.99,,2013-07-13 16:11:00,
2013-07-13 11:22:00,76.0,57.0,-100.00,SSE,160,1.0,3.0,51,-99.99,,,-99.99,,2013-07-13 16:22:00,
2013-07-13 11:43:00,77.0,55.0,-100.00,SSE,160,1.0,4.0,47,-99.99,,,-99.99,,2013-07-13 16:43:00,
2013-07-13 11:53:00,77.0,55.0,-100.00,SSE,160,1.0,4.0,47,-99.99,,,-99.99,,2013-07-13 16:53:00,
2013-07-13 12:12:00,79.0,55.0,-100.00,South,190,1.0,5.0,45,-99.99,,,-99.99,,2013-07-13 17:12:00,
2013-07-13 12:22:00,79.0,55.0,-100.00,South,190,1.0,5.0,45,-99.99,,,-99.99,,2013-07-13 17:22:00,
2013-07-13 12:43:00,81.0,57.0,-100.00,SW,215,1.0,2.0,44,-99.99,,,-99.99,,2013-07-13 17:43:00,
2013-07-13 12:52:00,81.0,57.0,-100.00,SW,215,1.0,2.0,44,-99.99,,,-99.99,,2013-07-13 17:52:00,
2013-07-13 13:22:00,82.0,55.0,-100.00,SW,215,1.0,3.0,39,-99.99,,,-99.99,,2013-07-13 18:22:00,
2013-07-13 13:44:00,83.0,57.0,-100.00,SSW,210,1.0,6.0,41,-99.99,,,-99.99,,2013-07-13 18:44:00,
2013-07-13 13:53:00,83.0,57.0,-100.00,SSW,210,1.0,6.0,41,-99.99,,,-99.99,,2013-07-13 18:53:00,
2013-07-13 14:11:00,87.0,58.0,-100.00,ESE,105,1.0,2.0,38,-99.99,,,-99.99,,2013-07-13 19:11:00,
2013-07-13 14:22:00,87.0,58.0,-100.00,ESE,105,1.0,2.0,38,-99.99,,,-99.99,,2013-07-13 19:22:00,
2013-07-13 14:32:00,85.0,57.0,-100.00,ESE,105,1.0,4.0,39,-99.99,,,-99.99,,2013-07-13 19:32:00,
2013-07-13 14:52:00,84.0,57.0,-100.00,SE,145,1.0,6.0,39,-99.99,,,-99.99,,2013-07-13 19:52:00,
2013-07-13 15:11:00,86.0,57.0,-100.00,SSE,155,1.0,4.0,38,-99.99,,,-99.99,,2013-07-13 20:11:00,
2013-07-13 15:22:00,86.0,57.0,-100.00,SSE,155,1.0,4.0,38,-99.99,,,-99.99,,2013-07-13 20:22:00,
2013-07-13 16:12:00,87.0,58.0,-100.00,SE,125,1.0,1.0,37,-99.99,,,-99.99,,2013-07-13 21:12:00,
2013-07-13 16:22:00,87.0,58.0,-100.00,SE,125,1.0,1.0,37,-99.99,,,-99.99,,2013-07-13 21:22:00,
2013-07-13 16:53:00,87.0,57.0,-100.00,East,100,0.0,3.0,36,-99.99,,,-99.99,,2013-07-13 21:53:00,
2013-07-13 17:12:00,86.0,57.0,-100.00,South,175,1.0,3.0,37,-99.99,,,-99.99,,2013-07-13 22:12:00,
2013-07-13 17:22:00,86.0,57.0,-100.00,South,175,1.0,3.0,37,-99.99,,,-99.99,,2013-07-13 22:22:00,
2013-07-13 17:43:00,86.0,56.0,-100.00,NE,40,0.0,1.0,36,-99.99,,,-99.99,,2013-07-13 22:43:00,
2013-07-13 17:53:00,86.0,56.0,-100.00,NE,40,0.0,1.0,36,-99.99,,,-99.99,,2013-07-13 22:53:00,
2013-07-13 18:11:00,86.0,56.0,-100.00,SE,145,0.0,3.0,36,-99.99,,,-99.99,,2013-07-13 23:11:00,
2013-07-13 18:22:00,86.0,56.0,-100.00,SE,145,0.0,3.0,36,-99.99,,,-99.99,,2013-07-13 23:22:00,
2013-07-13 18:42:00,86.0,57.0,-100.00,ESE,105,0.0,1.0,37,-99.99,,,-99.99,,2013-07-13 23:42:00,
2013-07-13 18:53:00,86.0,57.0,-100.00,ESE,105,0.0,1.0,37,-99.99,,,-99.99,,2013-07-13 23:53:00,
2013-07-13 19:21:00,84.0,57.0,-100.00,ESE,105,0.0,2.0,39,-99.99,,,-99.99,,2013-07-14 00:21:00,
2013-07-13 19:33:00,84.0,57.0,-100.00,ESE,105,0.0,2.0,39,-99.99,,,-99.99,,2013-07-14 00:33:00,
2013-07-13 19:53:00,82.0,56.0,-100.00,ESE,110,0.0,1.0,41,-99.99,,,-99.99,,2013-07-14 00:53:00,
2013-07-13 20:02:00,80.0,55.0,-100.00,ESE,110,0.0,0.0,42,-99.99,,,-99.99,,2013-07-14 01:02:00,
2013-07-13 20:11:00,78.0,54.0,-100.00,ESE,110,0.0,0.0,44,-99.99,,,-99.99,,2013-07-14 01:11:00,
2013-07-13 20:22:00,78.0,54.0,-100.00,ESE,110,0.0,0.0,44,-99.99,,,-99.99,,2013-07-14 01:22:00,
2013-07-13 20:43:00,76.0,56.0,-100.00,SE,125,0.0,0.0,51,-99.99,,,-99.99,,2013-07-14 01:43:00,
2013-07-13 20:52:00,76.0,56.0,-100.00,SE,125,0.0,0.0,51,-99.99,,,-99.99,,2013-07-14 01:52:00,
2013-07-13 21:11:00,74.0,58.0,-100.00,ENE,65,0.0,0.0,58,-99.99,,,-99.99,,2013-07-14 02:11:00,
2013-07-13 21:22:00,74.0,58.0,-100.00,ENE,65,0.0,0.0,58,-99.99,,,-99.99,,2013-07-14 02:22:00,
2013-07-13 21:32:00,73.0,59.0,-100.00,ENE,65,0.0,1.0,61,-99.99,,,-99.99,,2013-07-14 02:32:00,
2013-07-13 21:43:00,72.0,59.0,-100.00,East,90,0.0,0.0,64,-99.99,,,-99.99,,2013-07-14 02:43:00,
2013-07-13 21:53:00,72.0,59.0,-100.00,East,90,0.0,0.0,64,-99.99,,,-99.99,,2013-07-14 02:53:00,
2013-07-13 22:11:00,71.0,60.0,-100.00,East,80,0.0,0.0,68,-99.99,,,-99.99,,2013-07-14 03:11:00,
2013-07-13 22:22:00,71.0,60.0,-100.00,East,80,0.0,0.0,68,-99.99,,,-99.99,,2013-07-14 03:22:00,
2013-07-13 22:53:00,70.0,61.0,-100.00,East,80,0.0,0.0,72,-99.99,,,-99.99,,2013-07-14 03:53:00,
2013-07-13 23:11:00,69.0,62.0,-100.00,East,80,0.0,0.0,76,-99.99,,,-99.99,,2013-07-14 04:11:00,
2013-07-13 23:22:00,69.0,62.0,-100.00,East,80,0.0,0.0,76,-99.99,,,-99.99,,2013-07-14 04:22:00,
2013-07-13 23:32:00,69.0,61.0,-100.00,East,80,0.0,0.0,77,-99.99,,,-99.99,,2013-07-14 04:32:00,
2013-07-13 23:42:00,68.0,62.0,-100.00,ENE,65,0.0,1.0,79,-99.99,,,-99.99,,2013-07-14 04:42:00,
2013-07-13 23:54:00,68.0,62.0,-100.00,ENE,65,0.0,1.0,79,-99.99,,,-99.99,,2013-07-14 04:54:00,